Sarasota, FL

12:00 PM EST on November 13, 2019 (GMT -0500)
Sarasota-bradenton

Weather History for KSRQ - September, 2019

Change the Weather History Date:

Thursday, September 26, 2019

  Actual Average Record
Temperature  
Mean Temperature 82 °F 81 °F  
Max Temperature 91 °F 88 °F 96 °F (1951)
Min Temperature 72 °F 73 °F 63 °F (2008)
Degree Days  
Heating Degree Days 0 0  
Month to date heating degree days 0 0  
Since 1 July heating degree days 0 0  
Cooling Degree Days 17 16  
Month to date cooling degree days 522 433  
Year to date cooling degree days 3380 2730  
Growing Degree Days 32 (Base 50)    
Moisture  
Dew Point 70 °F    
Average Humidity 69    
Maximum Humidity 87    
Minimum Humidity 46    
Precipitation  
Precipitation 0.00 in 0.17 in 4.67 in (2004)
Month to date precipitation 1.99 6.53  
Year to date precipitation 43.38 44.86  
Sea Level Pressure  
Sea Level Pressure 29.90 in    
Wind  
Wind Speed 5 mph ()    
Max Wind Speed 14 mph    
Max Gust Speed 18 mph    
Visibility 10.0 miles    
Events      
T = Trace of Precipitation, MM = Missing Value Source: Averaged Metar Reports

Daily Weather History Graph

Daily Weather History Graph

Search for Another Location

Airport or City:

Astronomy

Sep. 26, 2019 Rise Set
Actual Time 7:20 AM EDT 7:22 PM EDT
Civil Twilight 6:57 AM EDT 7:45 PM EDT
Nautical Twilight 6:30 AM EDT 8:12 PM EDT
Astronomical Twilight 6:02 AM EDT 8:39 PM EDT
Moon 4:48 AM EDT (9/26) 6:16 PM EDT (9/26)
Length of Visible Light 12h 48m
Length of Day
12h 01m
Waning Crescent, 7% of the Moon is Illuminated
Sep 26
Waning Crescent
Sep 28
New
Oct 5
First Quarter
Oct 13
Full
Oct 21
Last Quarter

Hourly Weather History & Observations

Time (EDT) Temp. Heat Index Dew Point Humidity Pressure Visibility Wind Dir Wind Speed Gust Speed Precip Events Conditions
12:53 AM 77.0 °F - 68.0 °F 74% 29.90 in 10.0 mi ESE 6.9 mph - N/A   Clear
1:53 AM 75.0 °F - 68.0 °F 79% 29.89 in 10.0 mi ESE 5.8 mph - N/A   Clear
2:53 AM 73.9 °F - 68.0 °F 82% 29.89 in 10.0 mi East 4.6 mph - N/A   Clear
3:53 AM 73.0 °F - 68.0 °F 84% 29.88 in 10.0 mi SE 5.8 mph - N/A   Clear
4:53 AM 73.0 °F - 69.1 °F 87% 29.89 in 10.0 mi Calm Calm - N/A   Mostly Cloudy
5:53 AM 73.0 °F - 69.1 °F 87% 29.91 in 10.0 mi SE 3.5 mph - N/A   Scattered Clouds
6:53 AM 73.0 °F - 69.1 °F 87% 29.92 in 10.0 mi ESE 4.6 mph - N/A   Mostly Cloudy
7:53 AM 73.9 °F - 70.0 °F 87% 29.93 in 10.0 mi East 4.6 mph - N/A   Scattered Clouds
8:53 AM 77.0 °F - 70.0 °F 79% 29.94 in 10.0 mi ESE 3.5 mph - N/A   Partly Cloudy
9:53 AM 82.0 °F 85.9 °F 70.0 °F 67% 29.95 in 10.0 mi Variable 4.6 mph - N/A   Clear
10:53 AM 84.0 °F 87.8 °F 69.1 °F 61% 29.96 in 10.0 mi ENE 3.5 mph - N/A   Scattered Clouds
11:53 AM 87.1 °F 88.9 °F 64.9 °F 48% 29.96 in 10.0 mi North - - N/A   Clear
12:53 PM 87.1 °F 93.6 °F 72.0 °F 61% 29.94 in 10.0 mi West 10.4 mph - N/A   Clear
1:53 PM 89.1 °F 96.0 °F 72.0 °F 57% 29.92 in 10.0 mi West 10.4 mph - N/A   Clear
2:53 PM 88.0 °F 95.6 °F 73.0 °F 61% 29.90 in 10.0 mi West 12.7 mph - N/A   Scattered Clouds
3:53 PM 90.0 °F 95.4 °F 70.0 °F 52% 29.87 in 10.0 mi Variable 4.6 mph - N/A   Overcast
4:53 PM 91.9 °F 96.9 °F 69.1 °F 47% 29.86 in 10.0 mi North 10.4 mph - N/A   Partly Cloudy
5:53 PM 90.0 °F 93.6 °F 68.0 °F 48% 29.85 in 10.0 mi North 9.2 mph - N/A   Clear
6:53 PM 86.0 °F 91.5 °F 71.1 °F 61% 29.86 in 10.0 mi North 5.8 mph - N/A   Clear
7:53 PM 82.9 °F 88.8 °F 73.0 °F 72% 29.87 in 10.0 mi North 3.5 mph - N/A   Clear
8:53 PM 82.9 °F 88.8 °F 73.0 °F 72% 29.88 in 10.0 mi NNE 3.5 mph - N/A   Clear
9:53 PM 82.0 °F 87.9 °F 73.9 °F 76% 29.90 in 10.0 mi ENE 3.5 mph - N/A   Clear
10:53 PM 81.0 °F 84.4 °F 70.0 °F 69% 29.91 in 10.0 mi SE 5.8 mph - N/A   Clear
11:53 PM 80.1 °F 82.9 °F 69.1 °F 69% 29.91 in 10.0 mi ESE 5.8 mph - N/A   Clear